DW9433 Weather Reports


time (UTC)temp
F
wind
direction
speed
knots
gust
knots
rain 1hr
in
rain 24hr
in
rain mn
in
humidity
%
barometer
mb
20260906131518 82 142 0.0 3.5 0.00 0.00 0.00 79 1012.4
20260906130030 80 42 0.0 0.9 0.00 0.00 0.00 83 1012.5
20260906124517 78 45 0.0 0.0 0.00 0.00 0.00 87 1012.4
20260906123015 77 5 0.0 0.0 0.00 0.00 0.00 90 1012.4
20260906121510 76 5 0.0 0.0 0.00 0.00 0.00 92 1012.3
20260906120008 76 14 0.0 0.0 0.00 0.00 0.00 92 1012.0
20260906114508 76 14 0.0 0.0 0.00 0.00 0.00 92 1011.8
20260906113005 76 14 0.0 0.0 0.00 0.00 0.00 92 1011.4
20260906111503 76 14 0.0 0.0 0.00 0.00 0.00 92 1011.2
20260906110006 76 14 0.0 0.0 0.00 0.00 0.00 92 1011.1
20260906104600 76 14 0.0 0.0 0.00 0.00 0.00 92 1010.8
20260906103100 77 14 0.0 0.0 0.00 0.00 0.00 92 1010.7
20260906101559 77 14 0.0 0.0 0.00 0.00 0.00 92 1010.7
20260906100058 76 14 0.0 0.0 0.00 0.00 0.00 92 1010.7
20260906094558 77 14 0.0 0.0 0.00 0.00 0.00 91 1010.7
20260906093114 77 14 0.0 0.0 0.00 0.00 0.00 91 1010.6
20260906091557 77 14 0.0 0.0 0.00 0.00 0.00 91 1010.5
20260906090058 77 14 0.0 0.0 0.00 0.00 0.00 91 1010.5
20260906084553 77 14 0.0 0.0 0.00 0.00 0.00 90 1010.6
20260906083052 77 14 0.0 0.0 0.00 0.00 0.00 90 1010.5
20260906081553 78 14 0.0 0.0 0.00 0.00 0.00 89 1010.5
20260906080049 78 14 0.0 0.0 0.00 0.00 0.00 89 1010.6
20260906074549 78 14 0.0 0.0 0.00 0.00 0.00 88 1010.5
20260906073049 78 14 0.0 0.0 0.00 0.00 0.00 88 1010.5
20260906071557 78 14 0.0 0.0 0.00 0.00 0.00 89 1010.5
20260906070047 78 14 0.0 0.0 0.00 0.00 0.00 89 1010.6
20260906064546 78 14 0.0 0.0 0.00 0.00 0.00 89 1010.4
20260906063044 78 14 0.0 0.0 0.00 0.00 0.00 88 1010.6
20260906061542 78 14 0.0 0.0 0.00 0.00 0.00 88 1010.6
20260906060041 79 14 0.0 0.0 0.00 0.00 0.00 88 1010.7
20260906054544 79 14 0.0 0.0 0.00 0.00 0.00 88 1010.8
20260906053039 79 14 0.0 0.0 0.00 0.00 0.00 88 1010.8
20260906051545 79 14 0.0 0.0 0.00 0.00 0.00 87 1010.8
20260906050056 80 14 0.0 0.0 0.00 0.00 0.00 87 1010.7
20260906044533 80 14 0.0 0.0 0.00 0.00 0.00 86 1010.7
20260906043033 80 14 0.0 0.0 0.00 0.00 0.00 86 1010.5
20260906041533 80 14 0.0 0.0 0.00 0.00 0.00 85 1010.6
20260906040036 81 14 0.0 0.0 0.00 0.00 0.00 85 1010.6
20260906034540 81 14 0.0 0.0 0.00 0.00 0.00 84 1010.6
20260906033032 81 14 0.0 0.0 0.00 0.00 0.00 83 1010.7
20260906031539 82 14 0.0 0.0 0.00 0.00 0.00 83 1010.5
20260906030032 82 14 0.0 0.0 0.00 0.00 0.00 82 1010.5
20260906024531 83 14 0.0 0.0 0.00 0.00 0.00 81 1010.6
20260906023035 83 14 0.0 0.0 0.00 0.00 0.00 79 1010.4
20260906021529 83 14 0.0 0.0 0.00 0.00 0.00 79 1010.3
20260906020030 84 14 0.0 0.0 0.00 0.00 0.00 78 1010.2
20260906014533 85 14 0.0 0.0 0.00 0.00 0.00 76 1010.0
20260906013028 85 14 0.0 0.0 0.00 0.00 0.00 76 1009.8
20260906011527 86 14 0.0 0.0 0.00 0.00 0.00 74 1009.6
20260906010028 88 14 0.0 0.0 0.00 0.00 0.00 71 1009.4
20260906004527 89 14 0.0 0.0 0.00 0.00 0.00 67 1009.4
20260906003027 90 14 0.0 0.0 0.00 0.00 0.00 65 1009.4
20260906001525 92 14 0.0 0.0 0.00 0.00 0.00 63 1009.4
20260906000029 94 14 0.0 0.0 0.00 0.00 0.00 60 1009.4
20260905234524 95 14 0.0 0.0 0.00 0.00 0.00 55 1009.4
20260905233027 96 14 0.0 0.0 0.00 0.00 0.00 52 1009.4
20260905231522 97 14 0.0 0.9 0.00 0.00 0.00 50 1009.5
20260905230022 97 17 0.0 0.9 0.00 0.00 0.00 49 1009.6
20260905224522 97 5 0.0 1.7 0.00 0.00 0.00 51 1009.5
20260905223022 97 310 0.0 0.0 0.00 0.00 0.00 51 1009.5
20260905221520 97 29 0.0 4.3 0.00 0.00 0.00 52 1009.6
20260905220024 98 32 0.0 1.7 0.00 0.00 0.00 52 1009.6
20260905214520 98 65 0.0 6.1 0.00 0.00 0.00 50 1009.7
20260905213022 100 35 0.0 4.3 0.00 0.00 0.00 47 1009.5
20260905211518 100 34 0.0 0.9 0.00 0.00 0.00 44 1009.7
20260905210016 101 11 0.0 4.3 0.00 0.00 0.00 44 1009.9
20260905204516 101 5 0.0 1.7 0.00 0.00 0.00 46 1010.0
20260905203015 101 350 0.9 7.0 0.00 0.00 0.00 46 1010.2
20260905201511 102 21 0.9 3.5 0.00 0.00 0.00 46 1010.5
20260905200009 102 16 0.0 3.5 0.00 0.00 0.00 45 1010.5
20260905194508 101 5 0.0 5.2 0.00 0.00 0.00 46 1010.8
20260905193004 99 46 0.0 0.9 0.00 0.00 0.00 46 1011.1
20260905191502 100 20 0.0 0.0 0.00 0.00 0.00 46 1011.3
20260905190100 101 360 0.0 2.6 0.00 0.00 0.00 46 1011.4
20260905184609 100 5 0.0 4.3 0.00 0.00 0.00 47 1011.6
20260905183055 100 19 0.9 5.2 0.00 0.00 0.00 49 1011.7
20260905181553 99 18 0.0 1.7 0.00 0.00 0.00 49 1011.8
20260905180053 100 49 0.0 2.6 0.00 0.00 0.00 50 1012.0
20260905174557 100 32 0.9 4.3 0.00 0.00 0.00 50 1012.2
20260905173102 100 32 0.0 1.7 0.00 0.00 0.00 49 1012.2
20260905171548 99 50 0.0 0.9 0.00 0.00 0.00 52 1012.3
20260905170048 98 42 0.0 2.6 0.00 0.00 0.00 55 1012.6
20260905164544 98 198 0.0 0.0 0.00 0.00 0.00 55 1012.7
20260905163050 97 57 0.0 2.6 0.00 0.00 0.00 56 1012.9
20260905161537 96 91 0.0 4.3 0.00 0.00 0.00 58 1013.0
20260905160047 95 37 0.0 0.9 0.00 0.00 0.00 62 1013.2
20260905154531 94 34 0.0 0.9 0.00 0.00 0.00 63 1013.2
20260905153028 93 42 0.0 0.9 0.00 0.00 0.00 65 1013.2
20260905151526 93 36 0.0 0.9 0.00 0.00 0.00 65 1013.2
20260905150028 92 298 0.0 0.0 0.00 0.00 0.00 66 1013.4
20260905144539 91 31 0.0 0.9 0.00 0.00 0.00 67 1013.3
20260905143023 91 181 0.0 0.0 0.00 0.00 0.00 67 1013.2
20260905141520 89 183 0.0 0.0 0.00 0.00 0.00 69 1013.2
20260905140010 87 168 0.0 0.9 0.00 0.00 0.00 72 1013.1
20260905134512 85 173 0.0 0.0 0.00 0.00 0.00 75 1013.1
20260905133001 83 173 0.0 0.0 0.00 0.00 0.00 81 1013.1